This demonstration page uses our WeatherBlox Daily Observations layout. Learn more.

Left ArrowRight Arrow

44.8408, -93.29828

Hourly Observations for November 8, 2015

Temp ( °F °C ) Dew Point ( °F °C ) Humidity (%) Winds ( mph kmh ) Pressure ( in mb ) Visibility ( mi km ) Precip ( " mm )
12:53 am 00:53 Clear 43 6.1 27 -2.8 53 53 SSW 9 15 30.27 1025 10 16 0.00 0.00
1:53 am 01:53 Clear 43 6.1 26 -3.3 51 51 SSW 8 13 30.26 1025 10 16 0.00 0.00
2:53 am 02:53 Clear 43 6.1 25 -3.9 49 49 SSW 8 13 30.24 1024 10 16 0.00 0.00
3:53 am 03:53 Clear 43 6.1 26 -3.3 51 51 SSW 10 17 30.23 1024 10 16 0.00 0.00
4:53 am 04:53 Clear 43 6.1 26 -3.3 51 51 SSW 12 19 30.22 1024 10 16 0.00 0.00
5:53 am 05:53 Clear 43 6.1 26 -3.3 51 51 S 10 17 30.21 1023 10 16 0.00 0.00
6:53 am 06:53 Clear 43 6.1 27 -2.8 53 53 S 10 17 30.21 1023 10 16 0.00 0.00
7:53 am 07:53 Sunny 44 6.7 28 -2.2 53 53 S 10 17 30.21 1023 10 16 0.00 0.00
8:53 am 08:53 Sunny 47 8.3 29 -1.7 50 50 S 12 19 30.21 1023 10 16 0.00 0.00
9:53 am 09:53 Sunny 51 10.6 29 -1.7 43 43 SSW 14 22 30.21 1023 10 16 0.00 0.00
10:53 am 10:53 Sunny 53 11.7 29 -1.7 40 40 SW 18 30 30.20 1023 10 16 0.00 0.00
11:53 am 11:53 Sunny 55 12.8 31 -0.6 40 40 S 16 26 30.18 1022 10 16 0.00 0.00
12:53 pm 12:53 Sunny 58 14.4 31 -0.6 36 36 S 17 28 30.14 1021 10 16 0.00 0.00
1:53 pm 13:53 Sunny 59 15 32 0 36 36 SSW 17 28 30.13 1020 10 16 0.00 0.00
2:53 pm 14:53 Sunny 59 15 32 0 36 36 S 16 26 30.11 1020 10 16 0.00 0.00
3:53 pm 15:53 Sunny 58 14.4 32 0 38 38 S 17 28 30.09 1019 10 16 0.00 0.00
4:53 pm 16:53 Clear 56 13.3 32 0 40 40 S 13 20 30.08 1019 10 16 0.00 0.00
5:53 pm 17:53 Clear 55 12.8 31 -0.6 40 40 S 14 22 30.09 1019 10 16 0.00 0.00
6:53 pm 18:53 Clear 53 11.7 31 -0.6 43 43 S 13 20 30.09 1019 10 16 0.00 0.00
7:53 pm 19:53 Clear 52 11.1 32 0 47 47 S 9 15 30.09 1019 10 16 0.00 0.00
8:53 pm 20:53 Clear 50 10 32 0 50 50 SSE 13 20 30.10 1019 10 16 0.00 0.00
9:53 pm 21:53 Clear 49 9.4 32 0 52 52 S 10 17 30.10 1019 10 16 0.00 0.00
10:53 pm 22:53 Clear 47 8.3 32 0 56 56 S 9 15 30.09 1019 10 16 0.00 0.00
11:53 pm 23:53 Clear 47 8.3 32 0 56 56 S 9 15 30.10 1019 10 16 0.00 0.00

Powered by AerisWeather